Marseille, France

12:31 AM CET on January 20, 2018 (GMT +0100)
Marseille / Provence

Weather History for LFML - June, 2014

Change the Weather History Date:

Tuesday, June 3, 2014

  Actual Average Record
Temperature  
Mean Temperature 70 °F -  
Max Temperature 82 °F 80 °F 84 °F (1999)
Min Temperature 58 °F 62 °F 48 °F (2006)
Cooling Degree Days 5    
Growing Degree Days 20 (Base 50)    
Moisture  
Dew Point 49 °F    
Average Humidity 42    
Maximum Humidity 67    
Minimum Humidity 22    
Precipitation  
Precipitation 0.00 in 0.03 in - ()
Sea Level Pressure  
Sea Level Pressure 29.92 in    
Wind  
Wind Speed 9 mph ()    
Max Wind Speed 16 mph    
Max Gust Speed -    
Visibility 6.2 miles    
Events      
Averages and records for this station are not official NWS values.
T = Trace of Precipitation, MM = Missing Value Source: Averaged Metar Reports

Daily Weather History Graph

Daily Weather History Graph

Search for Another Location

Airport or City:

Trip Planner

Search our weather history database for the weather conditions in past years. The results will help you decide how hot, cold, wet, or windy it might be!

Date:

Astronomy

Jun. 03, 2014 Rise Set
Actual Time 6:00 AM CEST 9:14 PM CEST
Civil Twilight 5:25 AM CEST 9:49 PM CEST
Nautical Twilight 4:40 AM CEST 10:34 PM CEST
Astronomical Twilight 3:45 AM CEST 11:30 PM CEST
Moon 11:14 AM CEST (6/3) 12:28 AM CEST (6/3)
Length of Visible Light 16h 24m
Length of Day
15h 14m
Waxing Crescent, 28% of the Moon is Illuminated
Jun 3
Waxing Crescent
Jun 5
First Quarter
Jun 13
Full
Jun 19
Last Quarter
Jun 27
New

Hourly Weather History & Observations

Time (CEST) Temp. Dew Point Humidity Pressure Visibility Wind Dir Wind Speed Gust Speed Precip Events Conditions
12:00 AM 69 °F 46 °F 32% 29.95 in 25 mi NW 15.0 mph - -   Clear
12:00 AM 69.8 °F 46.4 °F 43% 29.95 in - NW 15.0 mph - N/A   Clear
12:30 AM 68.0 °F 48.2 °F 49% 29.95 in - NW 13.8 mph - N/A   Clear
1:00 AM 68 °F 47 °F 35% 29.95 in 25 mi NW 11.5 mph - -   Scattered Clouds
1:00 AM 68.0 °F 46.4 °F 46% 29.95 in - NW 10.4 mph - N/A   Clear
1:30 AM 66.2 °F 46.4 °F 49% 29.95 in 6.2 mi WNW 11.5 mph - N/A   Unknown
2:00 AM 66 °F 47 °F 40% 29.94 in 37 mi NW 10.4 mph - -   Clear
2:00 AM 66.2 °F 48.2 °F 52% 29.92 in 6.2 mi NW 10.4 mph - N/A   Unknown
2:30 AM 66.2 °F 46.4 °F 49% 29.95 in 6.2 mi NNW 8.1 mph - N/A   Unknown
3:00 AM 66 °F 47 °F 38% 29.94 in 37 mi NNW 8.1 mph - -   Clear
3:00 AM 66.2 °F 46.4 °F 49% 29.92 in 6.2 mi NNW 8.1 mph - N/A   Unknown
3:30 AM 66.2 °F 48.2 °F 52% 29.92 in 6.2 mi North 6.9 mph - N/A   Unknown
4:00 AM 65 °F 47 °F 42% 29.93 in 37 mi NNW 6.9 mph - -   Clear
4:00 AM 64.4 °F 48.2 °F 56% 29.92 in 6.2 mi NNW 6.9 mph - N/A   Unknown
4:30 AM 64.4 °F 46.4 °F 52% 29.92 in - North 6.9 mph - N/A   Clear
5:00 AM 63 °F 47 °F 45% 29.93 in 31 mi NNW 5.8 mph - -   Scattered Clouds
5:00 AM 64.4 °F 46.4 °F 52% 29.92 in - North 6.9 mph - N/A   Clear
5:30 AM 62.6 °F 46.4 °F 55% 29.92 in - NNE 3.5 mph - N/A   Clear
6:00 AM 63 °F 46 °F 43% 29.94 in 28 mi North 3.5 mph - -   Scattered Clouds
6:00 AM 62.6 °F 46.4 °F 55% 29.92 in - Variable 3.5 mph - N/A   Clear
6:30 AM 59.0 °F 46.4 °F 63% 29.92 in - Variable 2.3 mph - N/A   Clear
7:00 AM 59 °F 48 °F 59% 29.95 in 37 mi ESE 1.2 mph - -   Scattered Clouds
7:00 AM 59.0 °F 48.2 °F 67% 29.95 in - Variable 1.2 mph - N/A   Clear
7:30 AM 64.4 °F 48.2 °F 56% 29.95 in - NNW 5.8 mph - N/A   Clear
8:00 AM 66 °F 48 °F 41% 29.95 in 37 mi North 4.6 mph - -   Scattered Clouds
8:00 AM 66.2 °F 48.2 °F 52% 29.95 in - North 4.6 mph - N/A   Clear
8:30 AM 66.2 °F 48.2 °F 52% 29.95 in - NW 6.9 mph - N/A   Clear
9:00 AM 67 °F 48 °F 40% 29.95 in 37 mi NNW 9.2 mph - -   Scattered Clouds
9:00 AM 68.0 °F 48.2 °F 49% 29.95 in - NNW 10.4 mph - N/A   Clear
9:30 AM 68.0 °F 48.2 °F 49% 29.95 in - NNW 6.9 mph - N/A   Clear
10:00 AM 70 °F 48 °F 34% 29.95 in 37 mi NNW 4.6 mph - -  
10:00 AM 69.8 °F 48.2 °F 46% 29.95 in - NNW 4.6 mph - N/A   Clear
10:30 AM 71.6 °F 48.2 °F 43% 29.95 in - WSW 4.6 mph - N/A   Clear
11:00 AM 72 °F 51 °F 37% 29.95 in 37 mi WSW 10.4 mph - -   Scattered Clouds
11:00 AM 71.6 °F 51.8 °F 50% 29.95 in 6.2 mi WSW 10.4 mph - N/A   Partly Cloudy
11:30 AM 73.4 °F 50.0 °F 44% 29.95 in 6.2 mi WSW 10.4 mph - N/A   Partly Cloudy
12:00 PM 75 °F 50 °F 30% 29.94 in 37 mi WSW 10.4 mph - -   Scattered Clouds
12:00 PM 75.2 °F 50.0 °F 41% 29.95 in 6.2 mi WSW 10.4 mph - N/A   Partly Cloudy
12:30 PM 75.2 °F 50.0 °F 41% 29.92 in 6.2 mi WSW 9.2 mph - N/A   Partly Cloudy
1:00 PM 77 °F 51 °F 29% 29.94 in 37 mi WSW 9.2 mph - -   Scattered Clouds
1:00 PM 77.0 °F 50.0 °F 39% 29.92 in 6.2 mi WSW 8.1 mph - N/A   Partly Cloudy
1:30 PM 78.8 °F 50.0 °F 36% 29.92 in 6.2 mi WSW 9.2 mph - N/A   Partly Cloudy
2:00 PM 79 °F 49 °F 24% 29.93 in 37 mi WSW 6.9 mph - -   Scattered Clouds
2:00 PM 78.8 °F 48.2 °F 34% 29.92 in - WSW 6.9 mph - N/A   Clear
2:30 PM 78.8 °F 48.2 °F 34% 29.92 in - West 6.9 mph - N/A   Clear
3:00 PM 80 °F 49 °F 23% 29.92 in 37 mi WSW 6.9 mph - -   Scattered Clouds
3:00 PM 80.6 °F 48.2 °F 32% 29.92 in - WSW 6.9 mph - N/A   Clear
3:30 PM 82.4 °F 48.2 °F 30% 29.89 in - WSW 9.2 mph - N/A   Clear
4:00 PM 81 °F 49 °F 22% 29.90 in 37 mi SW 9.2 mph - -   Scattered Clouds
4:00 PM 80.6 °F 48.2 °F 32% 29.89 in - SW 9.2 mph - N/A   Clear
4:30 PM 82.4 °F 46.4 °F 28% 29.89 in - WSW 8.1 mph - N/A   Clear
5:00 PM 81 °F 50 °F 23% 29.89 in 37 mi SW 12.7 mph - -   Scattered Clouds
5:00 PM 80.6 °F 51.8 °F 37% 29.89 in - SW 12.7 mph - N/A   Clear
5:30 PM 80.6 °F 50.0 °F 34% 29.89 in - SW 13.8 mph - N/A   Clear
6:00 PM 78 °F 48 °F 24% 29.88 in 37 mi SW 16.1 mph - -   Scattered Clouds
6:00 PM 78.8 °F 48.2 °F 34% 29.89 in - SW 16.1 mph - N/A   Clear
6:30 PM 77.0 °F 50.0 °F 39% 29.89 in - SW 12.7 mph - N/A   Clear
7:00 PM 77 °F 51 °F 30% 29.88 in 37 mi SW 12.7 mph - -   Scattered Clouds
7:00 PM 77.0 °F 51.8 °F 41% 29.86 in - SW 12.7 mph - N/A   Clear
7:30 PM 75.2 °F 50.0 °F 41% 29.89 in - WSW 16.1 mph - N/A   Clear
8:00 PM 74 °F 52 °F 36% 29.89 in 37 mi SW 13.8 mph - -   Scattered Clouds
8:00 PM 75.2 °F 53.6 °F 47% 29.89 in - SW 13.8 mph - N/A   Clear
8:30 PM 73.4 °F 53.6 °F 50% 29.89 in - SW 9.2 mph - N/A   Clear
9:00 PM 73 °F 53 °F 38% 29.89 in 37 mi SSW 5.8 mph - -   Scattered Clouds
9:00 PM 73.4 °F 51.8 °F 47% 29.89 in - SSW 6.9 mph - N/A   Clear
9:30 PM 73.4 °F 50.0 °F 44% 29.89 in - Variable 2.3 mph - N/A   Clear
10:00 PM 73 °F 50 °F 34% 29.89 in 25 mi SW 3.5 mph - -   Clear
10:00 PM 73.4 °F 50.0 °F 44% 29.89 in - Variable 2.3 mph - N/A   Clear
10:30 PM 71.6 °F 53.6 °F 53% 29.89 in - SW 3.5 mph - N/A   Clear
11:00 PM 69 °F 51 °F 43% 29.89 in 25 mi South 5.8 mph - -   Clear
11:00 PM 69.8 °F 51.8 °F 53% 29.89 in - South 4.6 mph - N/A   Clear
11:30 PM 68.0 °F 51.8 °F 56% 29.89 in - SE 5.8 mph - N/A   Clear